Tracking 32523 objects as of 12-Dec-2025
HD Live streaming from Space Station
objects crossing your sky now

COSMOS 637

Track COSMOS 637 now!
COSMOS 637 is classified as:


NORAD ID: 7229
Int'l Code: 1974-017A
Perigee: 35,488.6 km
Apogee: 35,815.4 km
Inclination: 1.3 °
Period: 1,428.9 minutes
Semi major axis: 42023 km
RCS: 2.5118 m2 (large)
Launch date: March 26, 1974
Source: Commonwealth of Independent States (former USSR) (CIS)
Launch site: TYURATAM MISSILE AND SPACE COMPLEX (TTMTR)
Your satellite tracking list
Your tracking list is empty




NASA's NSSDC Master Catalog

Two Line Element Set (TLE):
1 07229U 74017A   25346.21084538  .00000150  00000-0  00000-0 0  9996
2 07229   1.3019 259.8898 0038879  66.3653 220.7356  1.00779444120317
Source of the keplerian elements: AFSPC